Time,TemperatureF,DewpointF,PressureIn,WindDirection,WindDirectionDegrees,WindSpeedMPH,WindSpeedGustMPH,Humidity,HourlyPrecipIn,Conditions,Clouds,dailyrainin,SoftwareType,DateUTC
2013-03-20 00:08:00,49.1,22.0,30.05,NW,316,0.0,1.0,34,0.00,,,0.00,weatherlink.com 1.10,2013-03-20 04:08:00,
2013-03-20 00:23:00,48.4,19.0,30.04,North,360,0.0,4.0,31,0.00,,,0.00,weatherlink.com 1.10,2013-03-20 04:23:00,
2013-03-20 00:38:00,48.0,19.0,30.05,North,360,0.0,2.0,32,0.00,,,0.00,weatherlink.com 1.10,2013-03-20 04:38:00,
2013-03-20 00:53:00,47.7,20.0,30.05,North,351,0.0,2.0,34,0.00,,,0.00,weatherlink.com 1.10,2013-03-20 04:53:00,
2013-03-20 01:08:00,47.2,20.0,30.05,North,360,0.0,1.0,34,0.00,,,0.00,weatherlink.com 1.10,2013-03-20 05:08:00,
2013-03-20 01:23:00,46.7,20.0,30.05,North,355,1.0,1.0,34,0.00,,,0.00,weatherlink.com 1.10,2013-03-20 05:23:00,
2013-03-20 01:38:00,46.2,18.0,30.05,NNW,338,0.0,2.0,32,0.00,,,0.00,weatherlink.com 1.10,2013-03-20 05:38:00,
2013-03-20 01:53:00,45.8,19.0,30.05,NNW,338,0.0,1.0,34,0.00,,,0.00,weatherlink.com 1.10,2013-03-20 05:53:00,
2013-03-20 02:08:00,45.7,17.0,30.05,NNW,342,0.0,2.0,32,0.00,,,0.00,weatherlink.com 1.10,2013-03-20 06:08:00,
2013-03-20 02:23:00,45.3,20.0,30.05,NNW,342,0.0,0.0,37,0.00,,,0.00,weatherlink.com 1.10,2013-03-20 06:23:00,
2013-03-20 02:38:00,44.9,21.0,30.06,North,360,0.0,0.0,39,0.00,,,0.00,weatherlink.com 1.10,2013-03-20 06:38:00,
2013-03-20 02:53:00,44.3,21.0,30.05,NNW,342,0.0,0.0,40,0.00,,,0.00,weatherlink.com 1.10,2013-03-20 06:53:00,
2013-03-20 03:08:00,43.7,25.0,30.05,NNW,342,0.0,1.0,48,0.00,,,0.00,weatherlink.com 1.10,2013-03-20 07:08:00,
2013-03-20 03:23:00,42.9,24.0,30.05,NNW,342,0.0,0.0,47,0.00,,,0.00,weatherlink.com 1.10,2013-03-20 07:23:00,
2013-03-20 03:38:00,42.2,22.0,30.05,NNW,342,0.0,0.0,45,0.00,,,0.00,weatherlink.com 1.10,2013-03-20 07:38:00,
2013-03-20 03:53:00,41.7,21.0,30.04,NNW,342,0.0,0.0,43,0.00,,,0.00,weatherlink.com 1.10,2013-03-20 07:53:00,
2013-03-20 04:08:00,41.1,22.0,30.04,NNW,342,0.0,0.0,47,0.00,,,0.00,weatherlink.com 1.10,2013-03-20 08:08:00,
2013-03-20 04:23:00,40.6,22.0,30.05,North,360,0.0,0.0,47,0.00,,,0.00,weatherlink.com 1.10,2013-03-20 08:23:00,
2013-03-20 04:38:00,40.1,20.0,30.05,NNW,342,0.0,0.0,44,0.00,,,0.00,weatherlink.com 1.10,2013-03-20 08:38:00,
2013-03-20 04:53:00,39.8,19.0,30.04,NNW,342,0.0,0.0,44,0.00,,,0.00,weatherlink.com 1.10,2013-03-20 08:53:00,
2013-03-20 05:08:00,39.6,21.0,30.05,NNW,342,0.0,0.0,48,0.00,,,0.00,weatherlink.com 1.10,2013-03-20 09:08:00,
2013-03-20 05:23:00,39.3,21.0,30.05,NNW,342,0.0,0.0,49,0.00,,,0.00,weatherlink.com 1.10,2013-03-20 09:23:00,
2013-03-20 05:38:00,38.9,20.0,30.05,NNW,342,0.0,0.0,47,0.00,,,0.00,weatherlink.com 1.10,2013-03-20 09:38:00,
2013-03-20 05:53:00,38.7,17.0,30.05,NNW,341,0.0,1.0,42,0.00,,,0.00,weatherlink.com 1.10,2013-03-20 09:53:00,
2013-03-20 06:08:00,38.8,14.0,30.06,NNW,342,0.0,2.0,37,0.00,,,0.00,weatherlink.com 1.10,2013-03-20 10:08:00,
2013-03-20 06:23:00,39.0,19.0,30.07,NNW,342,0.0,0.0,44,0.00,,,0.00,weatherlink.com 1.10,2013-03-20 10:23:00,
2013-03-20 06:38:00,38.8,18.0,30.07,North,360,0.0,0.0,43,0.00,,,0.00,weatherlink.com 1.10,2013-03-20 10:38:00,
2013-03-20 06:54:00,38.5,15.0,30.08,NNW,342,0.0,0.0,38,0.00,,,0.00,weatherlink.com 1.10,2013-03-20 10:54:00,
2013-03-20 07:24:00,37.8,15.0,30.09,NNW,342,0.0,0.0,40,0.00,,,0.00,weatherlink.com 1.10,2013-03-20 11:24:00,
2013-03-20 07:39:00,37.4,16.0,30.09,NNW,342,0.0,0.0,42,0.00,,,0.00,weatherlink.com 1.10,2013-03-20 11:39:00,
2013-03-20 07:54:00,37.3,19.0,30.10,NNW,342,0.0,0.0,48,0.00,,,0.00,weatherlink.com 1.10,2013-03-20 11:54:00,
2013-03-20 08:09:00,37.5,21.0,30.11,NNW,342,0.0,0.0,52,0.00,,,0.00,weatherlink.com 1.10,2013-03-20 12:09:00,
2013-03-20 08:24:00,38.2,22.0,30.10,NNW,342,0.0,0.0,52,0.00,,,0.00,weatherlink.com 1.10,2013-03-20 12:24:00,
2013-03-20 08:39:00,39.2,23.0,30.12,NNW,342,0.0,0.0,52,0.00,,,0.00,weatherlink.com 1.10,2013-03-20 12:39:00,
2013-03-20 08:54:00,40.8,20.0,30.11,NNW,342,0.0,1.0,43,0.00,,,0.00,weatherlink.com 1.10,2013-03-20 12:54:00,
2013-03-20 09:09:00,42.3,18.0,30.13,NNW,341,0.0,1.0,37,0.00,,,0.00,weatherlink.com 1.10,2013-03-20 13:09:00,
2013-03-20 09:24:00,43.4,17.0,30.13,NNW,327,0.0,1.0,35,0.00,,,0.00,weatherlink.com 1.10,2013-03-20 13:24:00,
2013-03-20 09:39:00,44.3,17.0,30.13,SW,214,0.0,3.0,34,0.00,,,0.00,weatherlink.com 1.10,2013-03-20 13:39:00,
2013-03-20 09:54:00,45.3,15.0,30.13,NNW,338,2.0,2.0,30,0.00,,,0.00,weatherlink.com 1.10,2013-03-20 13:54:00,
2013-03-20 10:09:00,45.6,16.0,30.14,NNW,340,0.0,3.0,31,0.00,,,0.00,weatherlink.com 1.10,2013-03-20 14:09:00,
2013-03-20 10:24:00,45.9,17.0,30.14,NW,315,0.0,3.0,32,0.00,,,0.00,weatherlink.com 1.10,2013-03-20 14:24:00,
2013-03-20 10:39:00,46.3,16.0,30.14,SSW,199,0.0,2.0,30,0.00,,,0.00,weatherlink.com 1.10,2013-03-20 14:39:00,
2013-03-20 10:54:00,46.8,17.0,30.14,SSW,199,1.0,2.0,30,0.00,,,0.00,weatherlink.com 1.10,2013-03-20 14:54:00,
2013-03-20 11:09:00,47.0,18.0,30.13,NW,309,1.0,3.0,31,0.00,,,0.00,weatherlink.com 1.10,2013-03-20 15:09:00,
2013-03-20 11:24:00,47.4,16.0,30.12,NNE,31,0.0,3.0,29,0.00,,,0.00,weatherlink.com 1.10,2013-03-20 15:24:00,
2013-03-20 11:39:00,47.8,14.0,30.13,NNW,348,0.0,3.0,26,0.00,,,0.00,weatherlink.com 1.10,2013-03-20 15:39:00,
2013-03-20 11:54:00,48.8,12.0,30.12,SSW,194,2.0,5.0,23,0.00,,,0.00,weatherlink.com 1.10,2013-03-20 15:54:00,
2013-03-20 12:09:00,50.1,16.0,30.11,North,351,2.0,4.0,26,0.00,,,0.00,weatherlink.com 1.10,2013-03-20 16:09:00,
2013-03-20 12:24:00,50.4,18.0,30.10,NNW,344,2.0,5.0,28,0.00,,,0.00,weatherlink.com 1.10,2013-03-20 16:24:00,
2013-03-20 12:54:00,51.0,16.0,30.08,NNW,329,1.0,3.0,25,0.00,,,0.00,weatherlink.com 1.10,2013-03-20 16:54:00,
2013-03-20 13:09:00,51.4,17.0,30.07,East,86,1.0,4.0,25,0.00,,,0.00,weatherlink.com 1.10,2013-03-20 17:09:00,
2013-03-20 13:24:00,52.2,17.0,30.07,NNW,338,1.0,4.0,25,0.00,,,0.00,weatherlink.com 1.10,2013-03-20 17:24:00,
2013-03-20 13:39:00,52.6,15.0,30.06,SW,227,2.0,4.0,22,0.00,,,0.00,weatherlink.com 1.10,2013-03-20 17:39:00,
2013-03-20 13:54:00,53.0,17.0,30.03,South,175,1.0,6.0,24,0.00,,,0.00,weatherlink.com 1.10,2013-03-20 17:54:00,
2013-03-20 14:09:00,53.7,17.0,30.02,SE,126,1.0,7.0,23,0.00,,,0.00,weatherlink.com 1.10,2013-03-20 18:09:00,
2013-03-20 14:24:00,54.1,15.0,30.01,SW,225,3.0,5.0,21,0.00,,,0.00,weatherlink.com 1.10,2013-03-20 18:24:00,
2013-03-20 14:39:00,54.5,17.0,30.00,West,272,0.0,4.0,23,0.00,,,0.00,weatherlink.com 1.10,2013-03-20 18:39:00,
2013-03-20 14:54:00,55.2,20.0,30.00,SE,146,3.0,6.0,25,0.00,,,0.00,weatherlink.com 1.10,2013-03-20 18:54:00,
2013-03-20 15:09:00,55.7,17.0,29.98,SW,224,3.0,4.0,22,0.00,,,0.00,weatherlink.com 1.10,2013-03-20 19:09:00,
2013-03-20 15:25:00,56.6,17.0,29.96,SSW,207,3.0,4.0,21,0.00,,,0.00,weatherlink.com 1.10,2013-03-20 19:25:00,
2013-03-20 15:40:00,56.8,18.0,29.95,SE,134,8.0,8.0,22,0.00,,,0.00,weatherlink.com 1.10,2013-03-20 19:40:00,
2013-03-20 15:55:00,56.7,19.0,29.93,SSW,197,3.0,8.0,23,0.00,,,0.00,weatherlink.com 1.10,2013-03-20 19:55:00,
2013-03-20 16:10:00,56.9,18.0,29.93,SW,232,1.0,4.0,22,0.00,,,0.00,weatherlink.com 1.10,2013-03-20 20:10:00,
2013-03-20 16:25:00,56.6,17.0,29.91,SSW,194,4.0,8.0,21,0.00,,,0.00,weatherlink.com 1.10,2013-03-20 20:25:00,
2013-03-20 16:40:00,56.3,17.0,29.91,SW,227,0.0,4.0,21,0.00,,,0.00,weatherlink.com 1.10,2013-03-20 20:40:00,
2013-03-20 16:55:00,56.4,18.0,29.90,SSE,156,2.0,6.0,22,0.00,,,0.00,weatherlink.com 1.10,2013-03-20 20:55:00,
2013-03-20 17:10:00,56.3,19.0,29.89,ESE,123,2.0,9.0,23,0.00,,,0.00,weatherlink.com 1.10,2013-03-20 21:10:00,
2013-03-20 17:25:00,56.1,18.0,29.89,SSW,209,1.0,6.0,22,0.00,,,0.00,weatherlink.com 1.10,2013-03-20 21:25:00,
2013-03-20 17:40:00,56.0,18.0,29.88,SSW,194,1.0,7.0,23,0.00,,,0.00,weatherlink.com 1.10,2013-03-20 21:40:00,
2013-03-20 17:55:00,55.8,17.0,29.88,SSE,152,0.0,7.0,22,0.00,,,0.00,weatherlink.com 1.10,2013-03-20 21:55:00,
2013-03-20 18:10:00,55.3,17.0,29.89,SW,219,0.0,4.0,22,0.00,,,0.00,weatherlink.com 1.10,2013-03-20 22:10:00,
2013-03-20 18:25:00,54.6,18.0,29.89,South,175,1.0,8.0,24,0.00,,,0.00,weatherlink.com 1.10,2013-03-20 22:25:00,
2013-03-20 18:40:00,53.9,20.0,29.89,South,182,1.0,3.0,26,0.00,,,0.00,weatherlink.com 1.10,2013-03-20 22:40:00,
2013-03-20 18:55:00,53.2,17.0,29.89,ESE,117,5.0,5.0,24,0.00,,,0.00,weatherlink.com 1.10,2013-03-20 22:55:00,
2013-03-20 19:10:00,52.7,18.0,29.89,ESE,121,0.0,3.0,25,0.00,,,0.00,weatherlink.com 1.10,2013-03-20 23:10:00,
2013-03-20 19:25:00,51.9,21.0,29.88,SE,128,0.0,3.0,30,0.00,,,0.00,weatherlink.com 1.10,2013-03-20 23:25:00,
2013-03-20 19:40:00,50.9,23.0,29.87,SE,128,0.0,1.0,33,0.00,,,0.00,weatherlink.com 1.10,2013-03-20 23:40:00,
2013-03-20 19:55:00,49.7,22.0,29.87,SE,128,0.0,0.0,34,0.00,,,0.00,weatherlink.com 1.10,2013-03-20 23:55:00,
2013-03-20 20:10:00,48.6,23.0,29.87,SE,128,0.0,1.0,36,0.00,,,0.00,weatherlink.com 1.10,2013-03-21 00:10:00,
2013-03-20 20:25:00,47.7,22.0,29.87,SE,128,0.0,1.0,37,0.00,,,0.00,weatherlink.com 1.10,2013-03-21 00:25:00,
2013-03-20 20:40:00,47.0,22.0,29.87,SE,128,0.0,1.0,37,0.00,,,0.00,weatherlink.com 1.10,2013-03-21 00:40:00,
2013-03-20 20:55:00,46.5,21.0,29.86,SE,128,0.0,1.0,37,0.00,,,0.00,weatherlink.com 1.10,2013-03-21 00:55:00,
2013-03-20 21:10:00,45.9,23.0,29.86,SE,128,0.0,1.0,40,0.00,,,0.00,weatherlink.com 1.10,2013-03-21 01:10:00,
2013-03-20 21:25:00,45.3,21.0,29.86,SE,128,0.0,1.0,39,0.00,,,0.00,weatherlink.com 1.10,2013-03-21 01:25:00,
2013-03-20 21:40:00,44.9,23.0,29.86,SE,128,0.0,1.0,42,0.00,,,0.00,weatherlink.com 1.10,2013-03-21 01:40:00,
2013-03-20 21:55:00,44.3,23.0,29.85,SE,128,0.0,1.0,43,0.00,,,0.00,weatherlink.com 1.10,2013-03-21 01:55:00,
2013-03-20 22:10:00,43.9,24.0,29.85,SE,128,0.0,0.0,45,0.00,,,0.00,weatherlink.com 1.10,2013-03-21 02:10:00,
2013-03-20 22:25:00,42.8,24.0,29.85,SE,128,0.0,1.0,47,0.00,,,0.00,weatherlink.com 1.10,2013-03-21 02:25:00,
2013-03-20 22:40:00,42.1,23.0,29.85,SE,128,0.0,1.0,46,0.00,,,0.00,weatherlink.com 1.10,2013-03-21 02:40:00,
2013-03-20 22:55:00,41.6,24.0,29.85,SE,128,0.0,1.0,50,0.00,,,0.00,weatherlink.com 1.10,2013-03-21 02:55:00,
2013-03-20 23:10:00,41.0,23.0,29.84,SE,128,0.0,0.0,50,0.00,,,0.00,weatherlink.com 1.10,2013-03-21 03:10:00,
2013-03-20 23:25:00,40.5,24.0,29.84,SE,128,0.0,0.0,53,0.00,,,0.00,weatherlink.com 1.10,2013-03-21 03:25:00,
2013-03-20 23:40:00,39.9,24.0,29.83,SE,128,0.0,1.0,53,0.00,,,0.00,weatherlink.com 1.10,2013-03-21 03:40:00,